Location: Casilda
(33.0440°S, 61.1680°W)
Time: 18:20:27
(UTC-03:00)

ISS - Pass Details

Date: 24 September 2022
Orbit: 414 x 417 km, 51.6° (Epoch: 24 September)

Event Time Altitude Azimuth Distance (km) Brightness Sun altitude
Exits shadow 04:37:36 19° 133° (SE) 1,082 -1.0 -28.3°
Drops below altitude 10° 04:38:40 10° 133° (SE) 1,511 -0.1 -28.1°
Sets 04:40:47 0° 133° (SE) 2,381 1.1 -27.6°
